TOURFACTS.DK  
Stats and Facts from Tour de France.

Tour de France 2019 starts in 320 days
  Riders   Stages   Teams   Summits   Yearly  


 
Search by year

After 2018 - Stage 21:
 15000 starters.
  5165 different riders.
  638 teams.
  2253 stages.
  456 restdays.
  442940.60 km.
  5684 abandonnees.


Top 3
GC
Geraint Thomas83:17:13
Tom Dumoulin83:19:04
Christopher Froome83:19:37
Climb
Julian Alaphilippe170 pt.
Warren Barguil91 pt.
Rafal Majka76 pt.
Sprint
Peter Sagan477 pt.
Alexander Kristoff246 pt.
Arnaud Démare203 pt.
Youth
Pierre-Roger Latou..83:39:26
Egan Bernal83:45:05
Guillaume Martin84:01:31
Facts from Tour de France 2016
  |   Stages.  |   Stage winners.  |   Days in yellow  |   Average speed.  |   Route.  |   Teams.  |   All riders.  |   Rookies.  |  

  |   Withdrawls.  |   GC.  |   Polka  |   Green  |   White  |   Summits. (In tour)  |   Miscellaneous.  |  

Stage 12 on 14 - 07 - 2016
         Owning:    Christopher Froome      Thomas De Gendt      Peter Sagan      Adam Yates  

Pick a stage:  1 2 3 4 5 6 7 8 9 10 11 12 13 14 15 16 17 18 19 20 21
  MontpellierMont Ventoux | Dist: 184.00 km.
Cat: 4Côte de GordesBELThomas De Gendt1 points 
Cat: 3Col des Trois TermesBELThomas De Gendt2 points 
Cat: HMont VentouxBELThomas De Gendt50 points 

Average speed for all riders in stage:  37,791 km./hr.
    Place:Name:Team:Time:Km/h:
1
BELThomas De GendtBELLotto Soudal04:31:51  +  00:00:00=40,611 
2
BELSerge PauwelsZAFDimension Data04:31:53  +  00:00:02=40,606 
3
ESPDaniel NavarroFRACofidis – Solutions Crédits04:32:05  +  00:00:14=40,576 
44 NEDStef ClementCHEIAM Cycling04:32:31  +  00:00:40=40,511 
55 FRASylvain ChavanelFRADirect Energie04:32:31  +  00:00:40=40,511 
66 NEDBert-Jan LindemanNLDTeam Lotto NL - Jumbo04:34:43  +  00:02:52=40,187 
77 ERIDaniel TeklehaimanotZAFDimension Data04:35:04  +  00:03:13=40,136 
88 BELSep VanmarckeNLDTeam Lotto NL - Jumbo04:35:17  +  00:03:26=40,104 
99 DENChris Anker SørensenFRAFortuneo - Vital Concept04:36:14  +  00:04:23=39,966 
1010 NEDBauke MollemaUSATrek - Segafredo04:36:56  +  00:05:05=39,865 
1111 ENGAdam YatesAUSORICA BikeExchange04:37:15  +  00:05:24=39,820 
1212 ITAFabio AruKAZAstana Pro Team04:37:15  +  00:05:24=39,820 
1313 RSALouis MeintjesITALampre-Merida04:37:15  +  00:05:24=39,820 
1414 FRARomain BardetFRAAg2r La Mondiale04:37:15  +  00:05:24=39,820 
1515 ESPJoaquim RodriguezRUSTeam Katusha04:37:15  +  00:05:24=39,820 
1616 ESPAlejandro ValverdeESPMovistar Team04:37:15  +  00:05:24=39,820 
1717 COLNairo QuintanaESPMovistar Team04:37:15  +  00:05:24=39,820 
1818 USATejay Van GarderenUSABMC Racing Team04:37:15  +  00:05:24=39,820 
1919 AUSRichie PorteUSABMC Racing Team04:36:56  +  00:05:05=39,865 
2020 ENGDaniel MartinBELEtixx - Quick Step04:38:21  +  00:06:30=39,662 
2121 SUISébastien ReichenbachFRAFDJ04:38:21  +  00:06:30=39,662 
2222 FRAWarren BarguilDEUTeam Giant Alpecin04:38:21  +  00:06:30=39,662 
2323 ESPDaniel MorenoESPMovistar Team04:38:21  +  00:06:30=39,662 
2424 COLSergio Luis HenaoGBRSky Procycling04:38:36  +  00:06:45=39,627 
2525 KENChristopher FroomeGBRSky Procycling04:38:36  +  00:06:45=39,627 
2626 CZERoman KreuzigerRUSTinkoff04:38:42  +  00:06:51=39,612 
2727 FRAPierre RollandUSATeam Cannondale Drapac04:39:15  +  00:07:24=39,534 
2828 WALGeraint ThomasGBRSky Procycling04:39:15  +  00:07:24=39,534 
2929 RUSIlnur ZakarinRUSTeam Katusha04:39:15  +  00:07:24=39,534 
3030 NEDWout PoelsGBRSky Procycling04:39:18  +  00:07:27=39,527 
3131 ESPMikel NieveGBRSky Procycling04:39:45  +  00:07:54=39,464 
3232 BELIljo KeisseBELEtixx - Quick Step04:39:45  +  00:07:54=39,464 
3333 GERAndré GreipelBELLotto Soudal04:41:21  +  00:09:30=39,239 
3434 ESPHaimar ZubeldiaUSATrek - Segafredo04:41:21  +  00:09:30=39,239 
3535 ITADamiano CarusoUSABMC Racing Team04:41:21  +  00:09:30=39,239 
3636 FRAAlexis VuillermozFRAAg2r La Mondiale04:41:21  +  00:09:30=39,239 
3737 GEREmanuel BuchmannDEUBora-Argon 1804:41:21  +  00:09:30=39,239 
3838 ESPLuis Angel MateFRACofidis – Solutions Crédits04:41:21  +  00:09:30=39,239 
3939 URSTanel KangertKAZAstana Pro Team04:41:21  +  00:09:30=39,239 
4040 COLJarlinson Pantano GomezCHEIAM Cycling04:41:21  +  00:09:30=39,239 
4141 FRACyril LemoineFRACofidis – Solutions Crédits04:41:56  +  00:10:05=39,158 
4242 LUXFränk SchleckUSATrek - Segafredo04:43:32  +  00:11:41=38,937 
4343 FRAAnthony DelaplaceFRAFortuneo - Vital Concept04:44:04  +  00:12:13=38,864 
4444 ESPMikel Landa MeanaGBRSky Procycling04:44:20  +  00:12:29=38,828 
4545 AUTPatrick KonradDEUBora-Argon 1804:45:31  +  00:13:40=38,667 
4646 FRAJérémy RoyFRAFDJ04:46:02  +  00:14:11=38,597 
4747 FRAAmaël MoinardUSABMC Racing Team04:46:02  +  00:14:11=38,597 
4848 FRAFlorian VachonFRAFortuneo - Vital Concept04:41:21  +  00:09:30=39,239 
4949 AUSAdam HansenBELLotto Soudal04:41:21  +  00:09:30=39,239 
5050 SUIMartin ElmigerCHEIAM Cycling04:41:21  +  00:09:30=39,239 
5151 ETHTsgabu Gebremaryan GrmayITALampre-Merida04:41:21  +  00:09:30=39,239 
5252 POLBartosz HuzarskiDEUBora-Argon 1804:41:21  +  00:09:30=39,239 
5353 BELJan BakelantsFRAAg2r La Mondiale04:47:16  +  00:15:25=38,431 
5454 ITAPaolo TiralongoKAZAstana Pro Team04:47:18  +  00:15:27=38,427 
5555 ESPLuis León SánchezKAZAstana Pro Team04:47:18  +  00:15:27=38,427 
5656 FRAMickaël CherelFRAAg2r La Mondiale04:48:18  +  00:16:27=38,293 
5757 RSADaryl ImpeyAUSORICA BikeExchange04:50:23  +  00:18:32=38,019 
5858 ESPRubén PlazaAUSORICA BikeExchange04:50:23  +  00:18:32=38,019 
5959 FRAAnthony RouxFRAFDJ04:51:35  +  00:19:44=37,862 
6060 LUXBen GastauerFRAAg2r La Mondiale04:51:35  +  00:19:44=37,862 
6161 FRACyril GautierFRAAg2r La Mondiale04:51:35  +  00:19:44=37,862 
6262 USAPeter StetinaUSATrek - Segafredo04:51:35  +  00:19:44=37,862 
6363 SUIMichael SchärUSABMC Racing Team04:53:17  +  00:21:26=37,643 
6464 BELJasper StuyvenUSATrek - Segafredo04:53:17  +  00:21:26=37,643 
6565 BELJulien VermoteBELEtixx - Quick Step04:53:17  +  00:21:26=37,643 
6666 GERMarcus BurghardtUSABMC Racing Team04:53:17  +  00:21:26=37,643 
6767 NEDDylan Van BaarleUSATeam Cannondale Drapac04:53:17  +  00:21:26=37,643 
6868 CANAntoine DuchesneFRADirect Energie04:53:17  +  00:21:26=37,643 
6969 SUIJakob FuglsangKAZAstana Pro Team04:53:17  +  00:21:26=37,643 
7070 FRAGeoffrey SoupeFRACofidis – Solutions Crédits04:53:17  +  00:21:26=37,643 
7171 ESPAlberto LosadaRUSTeam Katusha04:53:17  +  00:21:26=37,643 
7272 FRAPierre-Luc PérichonFRAFortuneo - Vital Concept04:53:17  +  00:21:26=37,643 
7373 NEDTom DumoulinDEUTeam Giant Alpecin04:53:17  +  00:21:26=37,643 
7474 BELEdward TheunsUSATrek - Segafredo04:53:17  +  00:21:26=37,643 
7575 BELOliver NaesenCHEIAM Cycling04:53:17  +  00:21:26=37,643 
7676 BELGreg Van AvermaetUSABMC Racing Team04:53:17  +  00:21:26=37,643 
7777 CZEPetr VakocBELEtixx - Quick Step04:53:17  +  00:21:26=37,643 
7878 ITAMatteo BonoITALampre-Merida04:53:17  +  00:21:26=37,643 
7979 HRVKristijan DurasekITALampre-Merida04:53:17  +  00:21:26=37,643 
8080 AUTGeorg PreidlerDEUTeam Giant Alpecin04:53:17  +  00:21:26=37,643 
8181 GERPaul VossDEUBora-Argon 1804:53:17  +  00:21:26=37,643 
8282 RSAReinardt Janse Van RensburgZAFDimension Data04:53:17  +  00:21:26=37,643 
8383 KAZAlexey LutsenkoKAZAstana Pro Team04:55:28  +  00:23:37=37,365 
8484 UKRAndriy GrivkoKAZAstana Pro Team04:55:28  +  00:23:37=37,365 
8585 ESPJesus HerradaESPMovistar Team04:55:28  +  00:23:37=37,365 
8686 ESPMarkel IrizarUSATrek - Segafredo04:55:28  +  00:23:37=37,365 
8787 PORNelson OliveiraESPMovistar Team04:55:28  +  00:23:37=37,365 
8888 URSRamunas NavardauskasUSATeam Cannondale Drapac04:55:28  +  00:23:37=37,365 
8989 SUIFabian CancellaraUSATrek - Segafredo04:55:28  +  00:23:37=37,365 
9090 DENMichael ValgrenRUSTinkoff04:55:28  +  00:23:37=37,365 
9191 ESPImanol ErvitiESPMovistar Team04:55:28  +  00:23:37=37,365 
9292 BLRVasil KiryienkaGBRSky Procycling04:55:28  +  00:23:37=37,365 
9393 FRABryan CoquardFRADirect Energie04:55:28  +  00:23:37=37,365 
9494 SLOBorut BozicFRACofidis – Solutions Crédits04:55:28  +  00:23:37=37,365 
9595 FRAJulian AlaphilippeBELEtixx - Quick Step04:55:28  +  00:23:37=37,365 
9696 AUSLuke DurbridgeAUSORICA BikeExchange04:55:28  +  00:23:37=37,365 
9797 DENMatti BreschelUSATeam Cannondale Drapac04:55:28  +  00:23:37=37,365 
9898 FRABrice FeilluFRAFortuneo - Vital Concept04:56:32  +  00:24:41=37,230 
9999 HRVRobert KiserlovskiRUSTinkoff04:57:16  +  00:25:25=37,138 
100100 ITADiego RosaKAZAstana Pro Team04:57:16  +  00:25:25=37,138 
101101 POLRafal MajkaRUSTinkoff04:57:16  +  00:25:25=37,138 
102102 SUIReto HollensteinCHEIAM Cycling04:57:16  +  00:25:25=37,138 
103103 ITAVincenzo NibaliKAZAstana Pro Team04:57:16  +  00:25:25=37,138 
104104 FRAThomas VoecklerFRADirect Energie04:57:16  +  00:25:25=37,138 
105105 NEDTimo RoosenNLDTeam Lotto NL - Jumbo04:57:16  +  00:25:25=37,138 
106106 ESPÁngel ViciosoRUSTeam Katusha04:57:16  +  00:25:25=37,138 
107107 ITADomenico PozzovivoFRAAg2r La Mondiale04:57:16  +  00:25:25=37,138 
108108 FRAFabrice JeandesbozFRADirect Energie04:57:16  +  00:25:25=37,138 
109109 NEDWilco KeldermanNLDTeam Lotto NL - Jumbo04:57:16  +  00:25:25=37,138 
110110 NEDTom-Jelte SlagterUSATeam Cannondale Drapac04:57:16  +  00:25:25=37,138 
111111 FRARomain SicardFRADirect Energie04:57:16  +  00:25:25=37,138 
112112 SLOLuka PibernikITALampre-Merida04:57:16  +  00:25:25=37,138 
113113 COLWinner AnaconaESPMovistar Team04:57:16  +  00:25:25=37,138 
114114 FRAArnold JeannessonFRACofidis – Solutions Crédits04:57:16  +  00:25:25=37,138 
115115 GERPaul MartensNLDTeam Lotto NL - Jumbo04:57:16  +  00:25:25=37,138 
116116 SUIGregory RastUSATrek - Segafredo04:57:16  +  00:25:25=37,138 
117117 AUSMathew HaymanAUSORICA BikeExchange04:57:16  +  00:25:25=37,138 
118118 FRAArthur VichotFRAFDJ04:57:16  +  00:25:25=37,138 
119119 NZLGregory HendersonBELLotto Soudal04:57:16  +  00:25:25=37,138 
120120 BELJens DebusschereBELLotto Soudal04:57:16  +  00:25:25=37,138 
121121 GERTony MartinBELEtixx - Quick Step04:57:16  +  00:25:25=37,138 
122122 NZLGeorge BennettNLDTeam Lotto NL - Jumbo04:57:16  +  00:25:25=37,138 
123123 USABrent BookwalterUSABMC Racing Team04:57:16  +  00:25:25=37,138 
124124 CZEJan BártaDEUBora-Argon 1804:57:16  +  00:25:25=37,138 
125125 FRAJérôme CoppelCHEIAM Cycling04:57:16  +  00:25:25=37,138 
126126 SUISteve MorabitoFRAFDJ04:57:16  +  00:25:25=37,138 
127127 FRATony GallopinBELLotto Soudal04:57:16  +  00:25:25=37,138 
128128 ARGEduardo SepulvedaFRAFortuneo - Vital Concept04:57:16  +  00:25:25=37,138 
129129 SUIMathias FrankCHEIAM Cycling04:57:16  +  00:25:25=37,138 
130130 FRA Alexis GougeardFRAAg2r La Mondiale04:57:16  +  00:25:25=37,138 
131131 PORRui CostaITALampre-Merida04:57:16  +  00:25:25=37,138 
132132 ENGStephen CummingsZAFDimension Data04:57:16  +  00:25:25=37,138 
133133 AUTMarco HallerRUSTeam Katusha04:57:16  +  00:25:25=37,138 
134134 FRAJérôme CousinFRACofidis – Solutions Crédits04:57:16  +  00:25:25=37,138 
135135 IRLChristopher Juul JensenAUSORICA BikeExchange04:57:16  +  00:25:25=37,138 
136136 USALawson CraddockUSATeam Cannondale Drapac04:57:48  +  00:25:57=37,072 
137137 AUSRohan DennisUSABMC Racing Team04:57:48  +  00:25:57=37,072 
138138 WALLuke RoweGBRSky Procycling04:57:48  +  00:25:57=37,072 
139139 FRAChristophe LaporteFRACofidis – Solutions Crédits04:57:54  +  00:26:03=37,059 
140140 ESPGorka Izaguirre InsaustiESPMovistar Team04:59:40  +  00:27:49=36,841 
141141 ESPJon Izaguirre InsaustiESPMovistar Team04:59:40  +  00:27:49=36,841 
142142 SVKPeter SaganRUSTinkoff04:59:51  +  00:28:00=36,818 
143143 IOMMark CavendishZAFDimension Data04:59:55  +  00:28:04=36,810 
144144 AUSLeigh HowardCHEIAM Cycling05:00:15  +  00:28:24=36,769 
145145 SLOKristjan KorenUSATeam Cannondale Drapac05:00:15  +  00:28:24=36,769 
146146 ITAMatteo TosattoRUSTinkoff05:00:15  +  00:28:24=36,769 
147147 AUTBernhard EiselZAFDimension Data05:00:15  +  00:28:24=36,769 
148148 ITAOscar GattoRUSTinkoff05:00:15  +  00:28:24=36,769 
149149 GERMarcel SiebergBELLotto Soudal05:00:15  +  00:28:24=36,769 
150150 NEDRoy CurversDEUTeam Giant Alpecin05:00:15  +  00:28:24=36,769 
151151 SLOJan PolancITALampre-Merida05:00:15  +  00:28:24=36,769 
152152 ITACesare BenedettiDEUBora-Argon 1805:00:15  +  00:28:24=36,769 
153153 NORSondre Holst EngerCHEIAM Cycling05:00:15  +  00:28:24=36,769 
154154 FRANicolas EdetFRACofidis – Solutions Crédits05:00:15  +  00:28:24=36,769 
155155 GERAndreas SchillingerDEUBora-Argon 1805:00:15  +  00:28:24=36,769 
156156 GERRobert WagnerNLDTeam Lotto NL - Jumbo05:00:15  +  00:28:24=36,769 
157157 FRAThibaut PinotFRAFDJ05:00:15  +  00:28:24=36,769 
158158 AUSSimon GerransAUSORICA BikeExchange05:00:15  +  00:28:24=36,769 
159159 FRASamuel DumoulinFRAAg2r La Mondiale05:00:15  +  00:28:24=36,769 
160160 NOREdvald Boasson HagenZAFDimension Data05:00:15  +  00:28:24=36,769 
161161 FRAWilliam BonnetFRAFDJ05:00:15  +  00:28:24=36,769 
162162 NEDRamon SinkeldamDEUTeam Giant Alpecin05:00:15  +  00:28:24=36,769 
163163 FRAArmindo FonsecaFRAFortuneo - Vital Concept05:00:15  +  00:28:24=36,769 
164164 NORAlexander KristoffRUSTeam Katusha05:00:15  +  00:28:24=36,769 
165165 ERINatnael Teweldemedhin BerhaneZAFDimension Data05:00:15  +  00:28:24=36,769 
166166 AUSMichael MatthewsAUSORICA BikeExchange05:00:15  +  00:28:24=36,769 
167167 BELJürgen RoelandtsBELLotto Soudal05:00:15  +  00:28:24=36,769 
168168 FRAAdrien PetitFRADirect Energie05:00:15  +  00:28:24=36,769 
169169 NORVegard BreenFRAFortuneo - Vital Concept05:00:15  +  00:28:24=36,769 
170170 POLMaciej BodnarRUSTinkoff05:00:15  +  00:28:24=36,769 
171171 FRAYohann GèneFRADirect Energie05:00:15  +  00:28:24=36,769 
172172 ITAJacopo GuarnieriRUSTeam Katusha05:00:15  +  00:28:24=36,769 
173173 NEDDylan GroenewegenNLDTeam Lotto NL - Jumbo05:00:15  +  00:28:24=36,769 
174174 BELSam BennettDEUBora-Argon 1805:00:15  +  00:28:24=36,769 
175175 USAAlex HowesUSATeam Cannondale Drapac05:00:15  +  00:28:24=36,769 
176176 NEDAlbert TimmerDEUTeam Giant Alpecin05:00:15  +  00:28:24=36,769 
177177 SUIMichael AlbasiniAUSORICA BikeExchange05:00:15  +  00:28:24=36,769 
178178 ENGDaniel McLayFRAFortuneo - Vital Concept05:00:15  +  00:28:24=36,769 
179179 GERSimon GeschkeDEUTeam Giant Alpecin05:00:15  +  00:28:24=36,769 
180180 DENLars BakBELLotto Soudal05:00:15  +  00:28:24=36,769 
181181 BELMaarten WynantsNLDTeam Lotto NL - Jumbo05:00:15  +  00:28:24=36,769 
182182 ENGIan StannardGBRSky Procycling05:00:15  +  00:28:24=36,769 
183183 JPNYukiya ArashiroITALampre-Merida05:00:15  +  00:28:24=36,769 
184184 NEDLaurens ten DamDEUTeam Giant Alpecin05:00:15  +  00:28:24=36,769 
185185 GERJohn DegenkolbDEUTeam Giant Alpecin05:00:15  +  00:28:24=36,769 
186186 ITAFabio SabatiniBELEtixx - Quick Step05:01:04  +  00:29:13=36,670 
187187 GERMarcel KittelBELEtixx - Quick Step05:01:04  +  00:29:13=36,670 
188188 BRAMaximilano RichezeBELEtixx - Quick Step05:01:04  +  00:29:13=36,670 
189189 ITADavide CimolaiITALampre-Merida05:01:04  +  00:29:13=36,670 
190190 NZLShane ArchboldDEUBora-Argon 1805:01:04  +  00:29:13=36,670 

Withdrawls: 2
 
Rider
Team
Reason
147  BELJurgen Van Den BroeckRUSTeam KatushaDid not start
178  FRAAngelo TulikFRADirect EnergieDid not finish
Todays birthdays.

1878  Jean Novo
1883  Jules Chabas
1890  Ange Aubry
1893  Roger Marye
1913  Paul Maye
1914  Lucien Vlaemynck
1915  Alphonse Antoine
1932  Rolf Graf
1953  Julio Rubiano
1959  Jos Haex
1959  Gerard Veldscholten
1963  Pablo Moreno
1964  Juan Castillo
1977  Iban Mayo
1994  Fernando Gaviria